Time,TemperatureF,DewpointF,PressureIn,WindDirection,WindDirectionDegrees,WindSpeedMPH,WindSpeedGustMPH,Humidity,HourlyPrecipIn,Conditions,Clouds,dailyrainin,SoftwareType,DateUTC
2013-02-13 10:20:00,9.0,4.6,29.82,NNW,338,1.0,1.0,82,0.00,,,0.00,Wunderground v.1.13,2013-02-13 19:20:00,
2013-02-13 10:30:00,8.3,3.4,29.82,NNW,339,1.0,1.0,80,0.00,,,0.00,Wunderground v.1.13,2013-02-13 19:30:00,
2013-02-13 10:35:00,7.4,2.5,29.83,NNW,339,0.0,44.0,80,0.00,,,0.00,Wunderground v.1.13,2013-02-13 19:35:00,
2013-02-13 10:40:00,6.3,1.2,29.83,NNW,339,0.0,44.0,79,0.00,,,0.00,Wunderground v.1.13,2013-02-13 19:40:00,
2013-02-13 10:45:00,7.4,3.6,29.83,NNE,13,0.0,44.0,84,0.00,,,0.00,Wunderground v.1.13,2013-02-13 19:45:00,
2013-02-13 10:55:00,8.8,4.4,29.83,NNW,340,0.0,44.0,82,0.00,,,0.00,Wunderground v.1.13,2013-02-13 19:55:00,
2013-02-13 11:00:00,9.2,5.1,29.83,North,5,0.0,44.0,83,0.00,,,0.00,Wunderground v.1.13,2013-02-13 20:00:00,
2013-02-13 11:10:00,8.6,4.5,29.83,NNW,346,0.0,44.0,83,0.00,,,0.00,Wunderground v.1.13,2013-02-13 20:10:00,
2013-02-13 11:15:00,9.5,5.6,29.83,NNE,21,1.0,44.0,84,0.00,,,0.00,Wunderground v.1.13,2013-02-13 20:15:00,
2013-02-13 11:20:00,11.2,7.8,29.83,North,9,1.0,1.0,86,0.00,,,0.00,Wunderground v.1.13,2013-02-13 20:20:00,
2013-02-13 11:25:00,11.7,7.8,29.83,North,9,0.0,44.0,84,0.00,,,0.00,Wunderground v.1.13,2013-02-13 20:25:00,
2013-02-13 11:30:00,11.9,7.7,29.83,North,9,0.0,44.0,83,0.00,,,0.00,Wunderground v.1.13,2013-02-13 20:30:00,
2013-02-13 11:35:00,11.9,7.7,29.83,North,9,0.0,44.0,83,0.00,,,0.00,Wunderground v.1.13,2013-02-13 20:35:00,
2013-02-13 11:45:00,13.3,9.9,29.83,North,9,0.0,44.0,86,0.00,,,0.00,Wunderground v.1.13,2013-02-13 20:45:00,
2013-02-13 11:50:00,13.8,10.4,29.83,North,9,0.0,44.0,86,0.00,,,0.00,Wunderground v.1.13,2013-02-13 20:50:00,
2013-02-13 12:00:00,11.7,6.7,29.83,North,9,0.0,44.0,80,0.00,,,0.00,Wunderground v.1.13,2013-02-13 21:00:00,
2013-02-13 12:10:00,10.7,6.6,29.84,North,9,0.0,44.0,83,0.00,,,0.00,Wunderground v.1.13,2013-02-13 21:10:00,
2013-02-13 12:15:00,11.9,8.3,29.84,North,9,0.0,44.0,85,0.00,,,0.00,Wunderground v.1.13,2013-02-13 21:15:00,
2013-02-13 12:25:00,12.6,8.7,29.83,North,350,0.0,44.0,84,0.00,,,0.00,Wunderground v.1.13,2013-02-13 21:25:00,
2013-02-13 12:30:00,11.9,7.5,29.83,North,350,0.0,44.0,82,0.00,,,0.00,Wunderground v.1.13,2013-02-13 21:30:00,
2013-02-13 12:35:00,11.6,7.2,29.83,NNW,338,0.0,44.0,82,0.00,,,0.00,Wunderground v.1.13,2013-02-13 21:35:00,
2013-02-13 12:40:00,11.6,7.2,29.83,North,355,0.0,44.0,82,0.00,,,0.00,Wunderground v.1.13,2013-02-13 21:40:00,
2013-02-13 12:50:00,11.4,7.0,29.83,NNW,345,0.0,44.0,82,0.00,,,0.00,Wunderground v.1.13,2013-02-13 21:50:00,
2013-02-13 12:55:00,11.4,7.0,29.83,NNW,345,0.0,44.0,82,0.00,,,0.00,Wunderground v.1.13,2013-02-13 21:55:00,
2013-02-13 13:00:00,11.7,7.5,29.83,NNW,345,0.0,44.0,83,0.00,,,0.00,Wunderground v.1.13,2013-02-13 22:00:00,
2013-02-13 13:10:00,12.3,8.4,29.83,NNW,345,0.0,44.0,84,0.00,,,0.00,Wunderground v.1.13,2013-02-13 22:10:00,
2013-02-13 13:15:00,13.1,9.4,29.83,North,350,0.0,44.0,85,0.00,,,0.00,Wunderground v.1.13,2013-02-13 22:15:00,
2013-02-13 13:20:00,13.1,8.6,29.83,North,350,0.0,44.0,82,0.00,,,0.00,Wunderground v.1.13,2013-02-13 22:20:00,
2013-02-13 13:25:00,13.3,9.4,29.83,North,350,0.0,44.0,84,0.00,,,0.00,Wunderground v.1.13,2013-02-13 22:25:00,
2013-02-13 13:35:00,14.8,10.6,29.83,North,350,0.0,44.0,83,0.00,,,0.00,Wunderground v.1.13,2013-02-13 22:35:00,
2013-02-13 13:40:00,14.6,10.4,29.83,NNW,346,0.0,44.0,83,0.00,,,0.00,Wunderground v.1.13,2013-02-13 22:40:00,
2013-02-13 13:45:00,14.3,10.1,29.83,NNW,346,0.0,44.0,83,0.00,,,0.00,Wunderground v.1.13,2013-02-13 22:45:00,
2013-02-13 13:55:00,15.1,11.4,29.83,NNW,346,0.0,44.0,85,0.00,,,0.00,Wunderground v.1.13,2013-02-13 22:55:00,
2013-02-13 14:00:00,15.4,11.4,29.83,NNW,346,0.0,44.0,84,0.00,,,0.00,Wunderground v.1.13,2013-02-13 23:00:00,
2013-02-13 14:10:00,15.1,10.9,29.83,NNW,346,0.0,44.0,83,0.00,,,0.00,Wunderground v.1.13,2013-02-13 23:10:00,
2013-02-13 14:20:00,15.2,11.2,29.82,NNW,346,0.0,44.0,84,0.00,,,0.00,Wunderground v.1.13,2013-02-13 23:20:00,
2013-02-13 14:25:00,15.4,11.4,29.82,NNW,346,0.0,44.0,84,0.00,,,0.00,Wunderground v.1.13,2013-02-13 23:25:00,
2013-02-13 14:35:00,15.9,11.7,29.82,NNW,335,0.0,44.0,83,0.00,,,0.00,Wunderground v.1.13,2013-02-13 23:35:00,
2013-02-13 14:40:00,15.9,11.7,29.82,NNW,335,0.0,44.0,83,0.00,,,0.00,Wunderground v.1.13,2013-02-13 23:40:00,
2013-02-13 14:45:00,15.7,11.2,29.82,NNW,335,0.0,44.0,82,0.00,,,0.00,Wunderground v.1.13,2013-02-13 23:45:00,
2013-02-13 14:55:00,15.7,11.5,29.82,NNW,335,0.0,44.0,83,0.00,,,0.00,Wunderground v.1.13,2013-02-13 23:55:00,
2013-02-13 15:00:00,16.1,11.8,29.82,NNW,335,0.0,44.0,83,0.00,,,0.00,Wunderground v.1.13,2013-02-14 00:00:00,
2013-02-13 15:10:00,16.9,12.6,29.81,NNW,335,0.0,44.0,83,0.00,,,0.00,Wunderground v.1.13,2013-02-14 00:10:00,
2013-02-13 15:15:00,17.0,13.0,29.81,NNW,335,0.0,44.0,84,0.00,,,0.00,Wunderground v.1.13,2013-02-14 00:15:00,
2013-02-13 15:20:00,17.0,13.0,29.81,NNW,335,0.0,44.0,84,0.00,,,0.00,Wunderground v.1.13,2013-02-14 00:20:00,
2013-02-13 15:25:00,16.9,12.9,29.81,NNW,335,0.0,44.0,84,0.00,,,0.00,Wunderground v.1.13,2013-02-14 00:25:00,
2013-02-13 15:30:00,17.2,13.5,29.81,NNW,336,0.0,44.0,85,0.00,,,0.00,Wunderground v.1.13,2013-02-14 00:30:00,
2013-02-13 15:40:00,18.0,14.3,29.81,NNW,336,0.0,44.0,85,0.00,,,0.00,Wunderground v.1.13,2013-02-14 00:40:00,
2013-02-13 15:45:00,18.6,14.3,29.81,NNW,336,0.0,44.0,83,0.00,,,0.00,Wunderground v.1.13,2013-02-14 00:45:00,
2013-02-13 15:50:00,18.4,14.1,29.81,NNW,336,0.0,44.0,83,0.00,,,0.00,Wunderground v.1.13,2013-02-14 00:50:00,
2013-02-13 15:55:00,18.3,14.0,29.81,NNW,336,0.0,44.0,83,0.00,,,0.00,Wunderground v.1.13,2013-02-14 00:55:00,
2013-02-13 16:10:00,19.4,15.4,29.80,NNW,340,0.0,44.0,84,0.00,,,0.00,Wunderground v.1.13,2013-02-14 01:10:00,
2013-02-13 16:15:00,20.2,15.9,29.80,NNW,340,0.0,44.0,83,0.00,,,0.00,Wunderground v.1.13,2013-02-14 01:15:00,
2013-02-13 16:20:00,20.6,16.3,29.80,NNW,340,0.0,44.0,83,0.00,,,0.00,Wunderground v.1.13,2013-02-14 01:20:00,
2013-02-13 16:30:00,20.2,15.9,29.80,NNW,340,0.0,44.0,83,0.00,,,0.00,Wunderground v.1.13,2013-02-14 01:30:00,
2013-02-13 16:35:00,19.5,15.2,29.80,NNW,340,0.0,44.0,83,0.00,,,0.00,Wunderground v.1.13,2013-02-14 01:35:00,
2013-02-13 16:40:00,19.1,14.8,29.80,NNW,343,0.0,44.0,83,0.00,,,0.00,Wunderground v.1.13,2013-02-14 01:40:00,
2013-02-13 16:45:00,18.6,14.0,29.80,NNW,343,0.0,44.0,82,0.00,,,0.00,Wunderground v.1.13,2013-02-14 01:45:00,
2013-02-13 16:55:00,19.1,15.1,29.80,North,5,0.0,44.0,84,0.00,,,0.00,Wunderground v.1.13,2013-02-14 01:55:00,
2013-02-13 17:10:00,20.0,14.5,29.80,North,5,0.0,44.0,79,0.00,,,0.00,Wunderground v.1.13,2013-02-14 02:10:00,
2013-02-13 17:15:00,18.6,14.0,29.80,NW,307,0.0,44.0,82,0.00,,,0.00,Wunderground v.1.13,2013-02-14 02:15:00,
2013-02-13 17:20:00,18.1,13.8,29.80,NNW,336,0.0,44.0,83,0.00,,,0.00,Wunderground v.1.13,2013-02-14 02:20:00,
2013-02-13 17:30:00,18.3,14.0,29.80,NNW,348,0.0,44.0,83,0.00,,,0.00,Wunderground v.1.13,2013-02-14 02:30:00,
2013-02-13 17:35:00,18.9,14.6,29.80,NNW,348,0.0,44.0,83,0.00,,,0.00,Wunderground v.1.13,2013-02-14 02:35:00,
2013-02-13 17:45:00,20.5,15.9,29.80,NNW,348,0.0,44.0,82,0.00,,,0.00,Wunderground v.1.13,2013-02-14 02:45:00,
2013-02-13 17:50:00,20.2,15.3,29.80,NNW,348,0.0,44.0,81,0.00,,,0.00,Wunderground v.1.13,2013-02-14 02:50:00,
2013-02-13 17:55:00,19.4,14.2,29.80,NNW,348,0.0,44.0,80,0.00,,,0.00,Wunderground v.1.13,2013-02-14 02:55:00,
2013-02-13 18:00:00,18.9,14.6,29.80,North,349,0.0,44.0,83,0.00,,,0.00,Wunderground v.1.13,2013-02-14 03:00:00,
2013-02-13 18:10:00,19.5,14.6,29.80,North,350,0.0,44.0,81,0.00,,,0.00,Wunderground v.1.13,2013-02-14 03:10:00,
2013-02-13 18:15:00,19.1,14.5,29.80,NNE,13,0.0,44.0,82,0.00,,,0.00,Wunderground v.1.13,2013-02-14 03:15:00,
2013-02-13 18:20:00,19.5,14.9,29.80,NNE,33,0.0,44.0,82,0.00,,,0.00,Wunderground v.1.13,2013-02-14 03:20:00,
2013-02-13 18:30:00,21.6,16.1,29.80,NNE,14,0.0,44.0,79,0.00,,,0.00,Wunderground v.1.13,2013-02-14 03:30:00,
2013-02-13 18:35:00,21.8,16.0,29.80,NNE,24,0.0,44.0,78,0.00,,,0.00,Wunderground v.1.13,2013-02-14 03:35:00,
2013-02-13 18:40:00,20.6,14.5,29.80,NNE,24,0.0,44.0,77,0.00,,,0.00,Wunderground v.1.13,2013-02-14 03:40:00,
2013-02-13 18:50:00,19.1,14.8,29.80,NNE,29,0.0,44.0,83,0.00,,,0.00,Wunderground v.1.13,2013-02-14 03:50:00,
2013-02-13 18:55:00,19.5,14.9,29.80,NNE,29,0.0,44.0,82,0.00,,,0.00,Wunderground v.1.13,2013-02-14 03:55:00,
2013-02-13 19:00:00,19.4,14.5,29.80,NNE,29,0.0,44.0,81,0.00,,,0.00,Wunderground v.1.13,2013-02-14 04:00:00,
2013-02-13 19:10:00,20.3,15.4,29.80,NNE,22,0.0,44.0,81,0.00,,,0.00,Wunderground v.1.13,2013-02-14 04:10:00,
2013-02-13 19:15:00,19.4,13.9,29.80,NNE,16,0.0,44.0,79,0.00,,,0.00,Wunderground v.1.13,2013-02-14 04:15:00,
2013-02-13 19:20:00,18.1,13.0,29.80,NNE,16,0.0,44.0,80,0.00,,,0.00,Wunderground v.1.13,2013-02-14 04:20:00,
2013-02-13 19:30:00,17.8,13.5,29.80,North,5,0.0,44.0,83,0.00,,,0.00,Wunderground v.1.13,2013-02-14 04:30:00,
2013-02-13 19:50:00,15.7,11.2,29.80,NNE,27,0.0,44.0,82,0.00,,,0.00,Wunderground v.1.13,2013-02-14 04:50:00,
2013-02-13 19:55:00,15.2,11.0,29.80,NNE,27,0.0,44.0,83,0.00,,,0.00,Wunderground v.1.13,2013-02-14 04:55:00,
2013-02-13 20:00:00,15.2,11.5,29.80,NNE,27,0.0,44.0,85,0.00,,,0.00,Wunderground v.1.13,2013-02-14 05:00:00,
2013-02-13 20:10:00,17.8,13.2,29.80,North,11,0.0,44.0,82,0.00,,,0.00,Wunderground v.1.13,2013-02-14 05:10:00,
2013-02-13 20:15:00,16.2,11.1,29.80,North,11,0.0,44.0,80,0.00,,,0.00,Wunderground v.1.13,2013-02-14 05:15:00,
2013-02-13 20:20:00,15.2,10.7,29.81,North,11,0.0,44.0,82,0.00,,,0.00,Wunderground v.1.13,2013-02-14 05:20:00,
2013-02-13 20:24:00,14.9,10.7,29.81,North,360,0.0,44.0,83,0.00,,,0.00,Wunderground v.1.13,2013-02-14 05:24:00,
2013-02-13 20:30:00,14.4,10.2,29.81,North,360,0.0,44.0,83,0.00,,,0.00,Wunderground v.1.13,2013-02-14 05:30:00,
2013-02-13 20:35:00,15.1,11.7,29.81,North,360,0.0,44.0,86,0.00,,,0.00,Wunderground v.1.13,2013-02-14 05:35:00,
2013-02-13 20:40:00,15.7,12.0,29.81,North,360,0.0,44.0,85,0.00,,,0.00,Wunderground v.1.13,2013-02-14 05:40:00,
2013-02-13 20:45:00,15.9,11.7,29.81,North,360,0.0,44.0,83,0.00,,,0.00,Wunderground v.1.13,2013-02-14 05:45:00,
2013-02-13 20:50:00,15.1,10.6,29.80,North,360,0.0,44.0,82,0.00,,,0.00,Wunderground v.1.13,2013-02-14 05:50:00,
2013-02-13 21:00:00,17.0,13.0,29.80,North,355,0.0,44.0,84,0.00,,,0.00,Wunderground v.1.13,2013-02-14 06:00:00,
2013-02-13 21:10:00,17.5,12.9,29.80,North,360,0.0,44.0,82,0.00,,,0.00,Wunderground v.1.13,2013-02-14 06:10:00,
2013-02-13 21:20:00,16.9,11.8,29.80,North,360,0.0,44.0,80,0.00,,,0.00,Wunderground v.1.13,2013-02-14 06:20:00,
2013-02-13 21:25:00,15.6,10.5,29.80,North,360,0.0,44.0,80,0.00,,,0.00,Wunderground v.1.13,2013-02-14 06:25:00,
2013-02-13 21:30:00,14.9,10.4,29.80,North,360,0.0,44.0,82,0.00,,,0.00,Wunderground v.1.13,2013-02-14 06:30:00,
2013-02-13 21:35:00,15.4,11.7,29.80,North,360,0.0,44.0,85,0.00,,,0.00,Wunderground v.1.13,2013-02-14 06:35:00,
2013-02-13 21:45:00,16.1,12.4,29.80,North,5,0.0,44.0,85,0.00,,,0.00,Wunderground v.1.13,2013-02-14 06:45:00,
2013-02-13 21:50:00,16.7,12.4,29.80,North,5,0.0,44.0,83,0.00,,,0.00,Wunderground v.1.13,2013-02-14 06:50:00,
2013-02-13 21:55:00,16.7,12.2,29.80,North,5,0.0,44.0,82,0.00,,,0.00,Wunderground v.1.13,2013-02-14 06:55:00,
2013-02-13 22:10:00,17.8,13.5,29.81,North,5,0.0,44.0,83,0.00,,,0.00,Wunderground v.1.13,2013-02-14 07:10:00,
2013-02-13 22:15:00,19.7,14.0,29.81,North,9,0.0,44.0,78,0.00,,,0.00,Wunderground v.1.13,2013-02-14 07:15:00,
2013-02-13 22:20:00,20.5,14.1,29.80,North,360,0.0,44.0,76,0.00,,,0.00,Wunderground v.1.13,2013-02-14 07:20:00,
2013-02-13 22:30:00,19.1,13.7,29.80,North,5,0.0,44.0,79,0.00,,,0.00,Wunderground v.1.13,2013-02-14 07:30:00,
2013-02-13 22:35:00,18.8,13.1,29.80,North,360,0.0,44.0,78,0.00,,,0.00,Wunderground v.1.13,2013-02-14 07:35:00,
2013-02-13 22:40:00,19.4,13.7,29.80,NNE,20,0.0,44.0,78,0.00,,,0.00,Wunderground v.1.13,2013-02-14 07:40:00,
2013-02-13 22:45:00,19.7,13.1,29.80,NNW,345,0.0,44.0,75,0.00,,,0.00,Wunderground v.1.13,2013-02-14 07:45:00,